Terminal Aerodrome Forecast
Issued by NWS Key West, FL

Home | Current Version | Previous Version | Text Only | Print | Product List | Glossary On
Versions: 1 2 3 4 5 6 7 8 9 10 11 12 13 14 15 16 17 18 19 20 21 22 23 24 25 26 27 28 29 30 31 32
000
FTUS42 KKEY 272029 AAA
TAFEYW
TAF AMD
KEYW 272029Z 2720/2818 VRB04KT P6SM FEW020 SCT100 BKN200
     FM281500 20006KT P6SM VCTS SCT022CB BKN060 OVC250=

USA.gov is the U.S. government's official web portal to all federal, state and local government web resources and services.